STARLINK-4533 (53406 NORAD) Tracking and Keplerian Element Data

This shows tracking and keplerian element data for the satellite.

Feedback or suggestion? Click here.




ElementValue
Catalog53406
NameSTARLINK-4533
Epoch Orbit797
Epoch Day270.25001157
Epoch Year2022
RAAN11.4361
Inclination53.2183
Eccentricity0.0001815
Argument of Perigee40.3685
Mean Anonmoly226.8468
Mean Motion15.49843726
Decay Rate0.00042863
L11 53406U 22097U 22270.25001157 .00042863 00000+0 76012-3 0 9993
L22 53406 53.2183 11.4361 0001815 40.3685 226.8468 15.49843726 7977

Live tracking and technical data element details for STARLINK-4533 (NORAD 53406). STARLINK-4533 can be tracked NOW for your location showing map with azimuth and elevation plus other details from your city location.

Track the satellite on the map from your city or location and see movement details for azimuth, elevation, latitude, longitude, range, height, and movement on the map or in text.







IsCatalogInMostPopularTable: catalog: 53406, numindb: 3
Update: records affected: 1



GetName: 53406 STARLINK-4533

Hit Count: updated at: Thu, 29 Sep 2022 10:54:25 GMT